星链-32349 (STARLINK-32349)

导读

STARLINK-32349是由美国发射的SpaceX星链卫星,于2024年10月30日08:00发射入轨,属于星链星座组网卫星,承担着为全球提供高速互联网接入服务的任务,尤其重点覆盖偏远、网络基础设施薄弱区域,进一步扩充了星链星座的服务容量与覆盖范围。

基本信息
目录编号:
61700
目录名称:
STARLINK-32349
国际标识:
2024-195P
轨道中心:
EARTH
卫星名称:
星链-32349
卫星全名:
星链-32349 (STARLINK-32349)
卫星状态:
在轨 (已飞行674 天)
发射日期:
2024-10-30 UTC
国别 :
美国 (US)
星等 :
--
轨道信息
数据来源 国际轨道数据 AOE轨道数据
星历时间 2026-09-02T03:19:58+0800
2天前
查看轨道信息
2026-09-04T02:00:00+0800
7小时前
查看轨道信息
半长轴 6840.873km 6840.804km
偏心率 0.0001097 0.0001106
轨道倾角 53.161° 53.161°
近地点辐角 96.140° 77.833°
升交点赤经 56.750° 47.662°
平近点角 263.972° 229.193°
近地点 461.985km 461.91km
远地点 463.487km 463.424km
周期 93.848分钟 93.847分钟
每日圈数 15.34389 15.344122
详细信息
固有亮度:
5
最大亮度:
2.5
卫星平台:
Starlink V1.0
覆盖范围:
全球
运营商:
太空探索技术公司
运营商所在国:
美国
制造商(研发单位):
太空探索技术公司
制造商所在国:
美国
使用方式:
暂无
卫星简介
Starlink 计划是 SpaceX 推出的全球卫星互联网项目,通过发射低轨道卫星,为全球尤其是偏远地区提供高速、低延迟的互联网服务。自 2019 年起,Starlink 已部署数千颗卫星,旨在缩小全球数字鸿沟,推动互联网普及。该项目还为军事、航空等行业提供通信支持,带来广泛经济效益。
2D轨道图
3D轨道图
轨道高度分析图
轨道倾角分析图
轨道综合分析图
查看轨道综合分析图
交会数据列表
事件ID 空间交会对象 最接近时刻(TCA) 交会距离 交会风险概率(CRP) 交会风险指数(CRI) 操作
CDM_260905-044100-139206-170022
2026-09-05T
04:41:20+0000
1.980 km
极远距离
2.611426E-6 低风险 0.43
CDM_260905-075006-170006-855521
2026-09-05T
07:50:04+0000
2.842 km
极远距离
1.268738E-6 低风险 0.37
CDM_260904-101105-231106-170021
2026-09-04T
10:11:21+0000
2.421 km
极远距离
9.803915E-7 极低风险 0.35
CDM_260827-214505-328706-170023
2026-08-27T
21:45:24+0000
2.807 km
极远距离
7.599731E-7 极低风险 0.33
CDM_260905-054906-170006-809021
2026-09-05T
05:49:13+0000
2.460 km
极远距离
6.182326E-7 极低风险 0.31